OPS 4682 DEB, 38409

Orbit data source: Space-Track

OPS 4682 DEB, 38409 is space debris in LEO originally from a launch on Sat, 03 Apr 1965 UTC launched from the Air Force Western Test Range (AFWTR). Debris objects in space refer to the collection of defunct objects orbiting the Earth. Examples of debris include non-operational satellites, rocket bodies, and fragments generated from explosions, collisions, or faulty payload assembly.

Loading next visibility...
Identifier
38409, 1965-027DN
Orbit
LEO
Country
Flag of USUS
Related business
Manufacturer
Unknown
Mission
Spacecraft
Bus & Motor
Unknown
Mass
Unknown
Launch date (UTC)
1965-04-03 (61 years ago)
Launch vehicle
Unknown
Launch site
Air Force Western Test Range (AFWTR)
Object type
Payload
Rocket body
Debris
Shape & HBR
Unknown shape, 0.1 m
Radar Cross Section
Small (<0.1 m²)

Expand to show TLE details & history
Last TLE update: 2 days ago

TLE from 2 days ago
0 OPS 4682 DEB
1 38409U 65027DN  26118.97568580 -.00000036  00000-0 -14626-3 0  9993
2 38409  90.2952  25.7763 0036265 118.6088 241.8689 12.99141646181828
Epoch: 2026-04-28T23:24Z
TLE epoch observation values (Epoch: 2026-04-28T23:24:59.253Z)
Latitude
-0.00006°
Longitude
177.58613°
Altitude
1,281.484 km
Speed
7.209 km/s
True Right ascension
01h 43m 06s
True Declination
0° 00' 00"
Sunlit
Object was in daylight at epoch
Visualization orbit readout
Latitude
Unknown
Longitude
Unknown
Altitude
Unknown
Speed
Unknown
Apparent Right ascension
Unknown
Apparent Declination
Unknown
Sunlit
N/A
Visualization observer readout
Local Sidereal Time
21:07:18
Azimuth
Unknown
Elevation
Unknown
Doppler factor
Unknown
Orbital elements
Apogee altitude
1,290.289 km
Perigee altitude
1,234.871 km
Semi-major axis
7,640.717 km
Eccentricity
0.00363
Inclination
90.2952°
RAAN
25.7763°
Arg. of periapsis
118.6088°
True anomaly
241.50321°
Mean anomaly
241.8689°
Eccentric anomaly
241.68598°
Mean motion
3.24969 °/min
Orbital period
110.78 mins
BSTAR
-0.00014626
Loading maneuver chart data...
Computing Atmospheric mass density...
Loading historical data...
Loading historical data...
Loading historical data...
Loading historical data...
Loading historical data...
Loading historical data...
Loading historical data...

Documentation

Showing up to 5 results
|